User: anonymous   Login
Location: Conjunto Santa Maria
(19.9513°S, 43.9599°W)
Time: 09:01:49
(UTC+00:00)
Language:

Lacrosse 5 rocket - Orbit

View from above orbital plane
View from above orbital plane
View from above satellite
View from above satellite

Ground track
Ground track

The orbit data is extracted from the following two-line orbital elements,

1 28647U 05016B   21104.35287061  .00000471  00000-0  45183-4 0  9996
2 28647  56.9965  96.5177 0121491 328.5164  30.8642 15.06334094105296
Epoch (UTC): 14 April 2021 08:28:08
Eccentricity: 0.0121491
inclination: 56.9965°
perigee height: 463 km
apogee height: 631 km
right ascension of ascending node: 96.5177°
argument of perigee: 328.5164°
revolutions per day: 15.06334094
mean anomaly at epoch: 30.8642°
orbit number at epoch: 10529

The dashed part of the orbit path shows where the satellite is in the earth's shadow,  

DLR